Location: Madrid
(40.4000°N, 3.6830°W)
Time: 08:45:57
(UTC+02:00)

ISS - Pass Details

Date: 21 July 2017
Orbit: 400 x 408 km, 51.6° (Epoch: 21 July)

Event Time Altitude Azimuth Distance (km) Brightness Sun altitude
Rises 05:10:23 0° 313° (NW) 2,316 0.0 -17.5°
Reaches altitude 10° 05:12:51 10° 331° (NNW) 1,456 -0.8 -17.2°
Maximum altitude 05:15:20 20° 21° (NNE) 1,014 -1.0 -16.9°
Drops below altitude 10° 05:17:48 10° 70° (ENE) 1,456 0.0 -16.6°
Sets 05:20:16 0° 88° (E) 2,315 0.7 -16.3°
